When you browse on this site, cookies collect data to enhance your experience and personalize the content and advertising you see.
Visit our Privacy Policy to learn more. By continuing to use the site, you agree to this use of cookies and data.
  • In Czech Republic
  • List of Countries
  • For 7 days
  • Water Temperature
  • Satellite Maps
  • Weather Map
  • Weather Widgets
  • user-avatar
    Login

    Hourly Weather Milford

    Today, 20 April, Saturday

    Time Temperature Precipitation Wind Pressure Humidity
    00:00 +18°C° 1 mm 8 mps 755 mmHg 91%
    01:00 +17°C° 0 mm 8 mps 754 mmHg 92%
    02:00 +17°C° 1.3 mm 8 mps 754 mmHg 93%
    03:00 +17°C° 1.3 mm 7 mps 754 mmHg 93%
    04:00 +17°C° 1.3 mm 6 mps 754 mmHg 94%
    05:00 +17°C° 3.5 mm 6 mps 755 mmHg 93%
    06:00 +17°C° 3.5 mm 6 mps 755 mmHg 93%
    07:00 +17°C° 3.5 mm 6 mps 755 mmHg 93%
    08:00 +17°C° 5.5 mm 7 mps 755 mmHg 94%
    09:00 +18°C° 5.5 mm 7 mps 755 mmHg 94%
    10:00 +18°C° 5.5 mm 7 mps 755 mmHg 95%
    11:00 +18°C° 4.3 mm 8 mps 755 mmHg 94%
    12:00 +18°C° 4.3 mm 8 mps 755 mmHg 93%
    13:00 +18°C° 4.3 mm 9 mps 755 mmHg 92%
    14:00 +17°C° 0 mm 8 mps 755 mmHg 92%
    15:00 +17°C° 0 mm 7 mps 756 mmHg 91%
    16:00 +17°C° 0 mm 6 mps 756 mmHg 90%
    17:00 +16°C° 0 mm 6 mps 756 mmHg 88%
    18:00 +15°C° 0 mm 5 mps 757 mmHg 86%
    19:00 +14°C° 0 mm 5 mps 757 mmHg 84%
    20:00 +14°C° 0 mm 5 mps 758 mmHg 82%
    21:00 +14°C° 0 mm 4 mps 758 mmHg 79%
    22:00 +13°C° 0 mm 4 mps 759 mmHg 76%
    23:00 +13°C° 0 mm 3 mps 759 mmHg 77%

    Tomorrow, 21 April, Sunday

    Time Temperature Precipitation Wind Pressure Humidity
    00:00 +13°C° 0 mm 3 mps 759 mmHg 77%
    01:00 +13°C° 0 mm 2 mps 759 mmHg 78%
    02:00 +13°C° 0 mm 2 mps 759 mmHg 80%
    03:00 +13°C° 0 mm 2 mps 759 mmHg 82%
    04:00 +13°C° 0 mm 2 mps 759 mmHg 84%
    05:00 +13°C° 0 mm 2 mps 760 mmHg 84%
    06:00 +13°C° 0 mm 2 mps 760 mmHg 85%
    07:00 +14°C° 0 mm 2 mps 760 mmHg 85%
    08:00 +13°C° 0.1 mm 3 mps 761 mmHg 84%
    09:00 +13°C° 0.1 mm 3 mps 761 mmHg 83%
    10:00 +14°C° 0.1 mm 3 mps 761 mmHg 82%
    11:00 +13°C° 0.2 mm 3 mps 761 mmHg 82%
    12:00 +14°C° 0.2 mm 2 mps 761 mmHg 83%
    13:00 +14°C° 0.2 mm 2 mps 762 mmHg 84%
    14:00 +14°C° 0 mm 2 mps 761 mmHg 79%
    15:00 +15°C° 0 mm 2 mps 761 mmHg 74%
    16:00 +15°C° 0 mm 2 mps 761 mmHg 68%
    17:00 +15°C° 0 mm 2 mps 762 mmHg 71%
    18:00 +14°C° 0 mm 1 mps 762 mmHg 74%
    19:00 +13°C° 0 mm 1 mps 762 mmHg 76%
    20:00 +13°C° 0 mm 1 mps 763 mmHg 78%
    21:00 +12°C° 0 mm 1 mps 763 mmHg 79%
    22:00 +12°C° 0 mm 1 mps 763 mmHg 80%
    23:00 +10°C° 0 mm 0 mps 763 mmHg 80%

    Day after tomorrow, 22 April, Monday

    Time Temperature Precipitation Wind Pressure Humidity
    00:00 +10°C° 0 mm 0 mps 763 mmHg 81%
    01:00 +10°C° 0 mm 0 mps 762 mmHg 81%
    02:00 +10°C° 0 mm 0 mps 762 mmHg 80%
    03:00 +10°C° 0 mm 1 mps 762 mmHg 80%
    04:00 +10°C° 0 mm 1 mps 762 mmHg 79%
    05:00 +11°C° 0 mm 1 mps 762 mmHg 77%
    06:00 +12°C° 0 mm 1 mps 763 mmHg 74%
    07:00 +13°C° 0 mm 1 mps 763 mmHg 72%
    08:00 +15°C° 0 mm 1 mps 763 mmHg 66%
    09:00 +18°C° 0 mm 1 mps 763 mmHg 61%
    10:00 +20°C° 0 mm 1 mps 763 mmHg 56%
    11:00 +21°C° 0 mm 1 mps 763 mmHg 53%
    12:00 +22°C° 0 mm 1 mps 762 mmHg 50%
    13:00 +23°C° 0 mm 1 mps 762 mmHg 48%
    14:00 +23°C° 0 mm 1 mps 762 mmHg 48%
    15:00 +23°C° 0 mm 1 mps 761 mmHg 49%
    16:00 +23°C° 0 mm 1 mps 760 mmHg 50%
    17:00 +22°C° 0 mm 1 mps 761 mmHg 53%
    18:00 +21°C° 0 mm 1 mps 761 mmHg 57%
    19:00 +19°C° 0 mm 2 mps 761 mmHg 60%
    20:00 +18°C° 0 mm 2 mps 761 mmHg 64%
    21:00 +17°C° 0 mm 3 mps 761 mmHg 67%
    22:00 +17°C° 0 mm 3 mps 762 mmHg 70%
    23:00 +16°C° 0 mm 3 mps 762 mmHg 73%

    23 April, Tuesday

    Time Temperature Precipitation Wind Pressure Humidity
    00:00 +14°C° 0 mm 3 mps 761 mmHg 76%
    01:00 +14°C° 0 mm 3 mps 761 mmHg 79%
    02:00 +14°C° 0 mm 2 mps 761 mmHg 82%
    03:00 +13°C° 0 mm 2 mps 762 mmHg 84%
    04:00 +13°C° 0 mm 2 mps 762 mmHg 86%
    05:00 +14°C° 0 mm 2 mps 762 mmHg 85%
    06:00 +14°C° 0 mm 2 mps 762 mmHg 84%
    07:00 +15°C° 0 mm 2 mps 763 mmHg 83%
    08:00 +16°C° 0 mm 1 mps 763 mmHg 78%
    09:00 +18°C° 0 mm 1 mps 763 mmHg 73%
    10:00 +20°C° 0 mm 1 mps 763 mmHg 68%
    11:00 +21°C° 0 mm 1 mps 762 mmHg 64%
    12:00 +20°C° 0 mm 0 mps 762 mmHg 60%
    13:00 +21°C° 0 mm 0 mps 761 mmHg 57%
    14:00 +23°C° 0 mm 1 mps 761 mmHg 56%
    15:00 +23°C° 0 mm 1 mps 760 mmHg 56%
    16:00 +23°C° 0 mm 2 mps 760 mmHg 55%
    17:00 +20°C° 0 mm 2 mps 760 mmHg 59%
    18:00 +19°C° 0 mm 3 mps 760 mmHg 63%
    19:00 +17°C° 0 mm 4 mps 760 mmHg 67%
    20:00 +17°C° 0 mm 3 mps 759 mmHg 69%
    21:00 +16°C° 0 mm 3 mps 759 mmHg 72%
    22:00 +14°C° 0 mm 3 mps 759 mmHg 74%
    23:00 +14°C° 0.1 mm 3 mps 758 mmHg 76%

    24 April, Wednesday

    Time Temperature Precipitation Wind Pressure Humidity
    00:00 +13°C° 0.1 mm 3 mps 758 mmHg 78%
    01:00 +13°C° 0.1 mm 4 mps 757 mmHg 80%
    02:00 +13°C° 0.9 mm 4 mps 757 mmHg 83%
    03:00 +14°C° 0.9 mm 4 mps 756 mmHg 86%
    04:00 +14°C° 0.9 mm 4 mps 755 mmHg 89%
    05:00 +14°C° 0.5 mm 4 mps 755 mmHg 89%
    06:00 +15°C° 0.5 mm 4 mps 754 mmHg 88%
    07:00 +17°C° 0.5 mm 4 mps 754 mmHg 87%
    08:00 +17°C° 0 mm 5 mps 754 mmHg 80%
    09:00 +19°C° 0 mm 5 mps 754 mmHg 72%
    10:00 +21°C° 0 mm 6 mps 754 mmHg 64%
    11:00 +21°C° 0 mm 6 mps 754 mmHg 57%
    12:00 +22°C° 0 mm 6 mps 754 mmHg 49%
    13:00 +22°C° 0 mm 6 mps 754 mmHg 42%
    14:00 +22°C° 0 mm 6 mps 754 mmHg 40%
    15:00 +21°C° 0 mm 6 mps 754 mmHg 39%
    16:00 +21°C° 0 mm 5 mps 753 mmHg 38%
    17:00 +19°C° 0 mm 5 mps 754 mmHg 44%
    18:00 +18°C° 0 mm 4 mps 755 mmHg 50%
    19:00 +15°C° 0 mm 4 mps 755 mmHg 56%
    20:00 +14°C° 0 mm 4 mps 755 mmHg 59%
    21:00 +13°C° 0 mm 4 mps 756 mmHg 63%
    22:00 +12°C° 0 mm 4 mps 756 mmHg 67%
    23:00 +11°C° 0 mm 4 mps 756 mmHg 68%

    25 April, Thursday

    Time Temperature Precipitation Wind Pressure Humidity
    00:00 +11°C° 0 mm 3 mps 756 mmHg 70%
    01:00 +10°C° 0 mm 3 mps 756 mmHg 72%
    02:00 +10°C° 0 mm 3 mps 757 mmHg 74%
    03:00 +9°C° 0 mm 2 mps 757 mmHg 76%
    04:00 +9°C° 0 mm 2 mps 757 mmHg 78%
    05:00 +9°C° 0 mm 2 mps 757 mmHg 74%
    06:00 +10°C° 0 mm 3 mps 758 mmHg 70%
    07:00 +10°C° 0 mm 3 mps 758 mmHg 66%
    08:00 +11°C° 0 mm 3 mps 758 mmHg 59%
    09:00 +13°C° 0 mm 3 mps 758 mmHg 53%
    10:00 +14°C° 0 mm 3 mps 758 mmHg 46%
    11:00 +16°C° 0 mm 3 mps 758 mmHg 43%
    12:00 +18°C° 0 mm 3 mps 757 mmHg 40%
    13:00 +19°C° 0 mm 3 mps 757 mmHg 37%
    14:00 +19°C° 0 mm 2 mps 757 mmHg 37%
    15:00 +19°C° 0 mm 2 mps 757 mmHg 38%
    16:00 +19°C° 0 mm 2 mps 756 mmHg 38%
    17:00 +18°C° 0 mm 2 mps 757 mmHg 42%
    18:00 +18°C° 0 mm 1 mps 757 mmHg 47%
    19:00 +15°C° 0 mm 1 mps 757 mmHg 51%
    20:00 +15°C° 0 mm 1 mps 758 mmHg 55%
    21:00 +14°C° 0 mm 1 mps 758 mmHg 60%
    22:00 +13°C° 0 mm 1 mps 758 mmHg 64%
    23:00 +12°C° 0 mm 1 mps 758 mmHg 66%
    Show more